EW3791 Weather Reports


Display with metric or nautical units.
time (UTC)temp
F
wind
direction
speed
MPH
gust
MPH
rain 1hr
in
rain 24hr
in
rain mn
in
humidity
%
barometer
mb
20260503220049 78 148 3.0 11.0 0.00 0.00 0.00 40 1017.9
20260503214526 78 106 5.0 10.0 0.00 0.00 0.00 41 1017.9
20260503213104 78 172 3.0 12.0 0.00 0.00 0.00 41 1018.3
20260503211535 78 110 5.0 11.0 0.00 0.00 0.00 42 1018.6
20260503210004 78 122 6.0 13.0 0.00 0.00 0.00 41 1018.7
20260503204545 78 110 4.0 8.0 0.00 0.00 0.00 40 1018.8
20260503203015 78 154 7.0 12.0 0.00 0.00 0.00 40 1019.0
20260503201554 78 150 3.0 12.0 0.00 0.00 0.00 41 1019.3
20260503200023 79 53 2.0 8.0 0.00 0.00 0.00 40 1019.7
20260503194602 79 141 6.0 14.0 0.00 0.00 0.00 40 1019.7
20260503193040 78 162 5.0 12.0 0.00 0.00 0.00 40 1020.0
20260503191612 79 58 4.0 9.0 0.00 0.00 0.00 40 1020.3
20260503190044 78 84 4.0 14.0 0.00 0.00 0.00 42 1020.5
20260503184514 78 55 4.0 10.0 0.00 0.00 0.00 40 1020.6
20260503183112 78 83 3.0 8.0 0.00 0.00 0.00 40 1020.8
20260503181525 78 110 5.0 11.0 0.00 0.00 0.00 40 1021.1
20260503180117 77 94 8.0 15.0 0.00 0.00 0.00 39 1021.3
20260503174541 77 183 4.0 8.0 0.00 0.00 0.00 39 1021.6
20260503173019 77 124 4.0 8.0 0.00 0.00 0.00 43 1021.9
20260503171555 77 157 4.0 10.0 0.00 0.00 0.00 42 1022.1
20260503130111 63 46 0.0 2.0 0.00 0.00 0.00 84 1021.5
20260503100112 58 45 0.0 0.0 0.00 0.00 0.00 87 1020.2
20260503081524 59 45 0.0 0.0 0.00 0.00 0.00 85 1020.2
20260503080110 59 45 0.0 0.0 0.00 0.00 0.00 84 1020.2
20260503071605 60 45 0.0 0.0 0.00 0.00 0.00 82 1020.2
20260503060124 61 45 0.0 0.0 0.00 0.00 0.00 79 1020.4
20260503054542 62 45 0.0 0.0 0.00 0.00 0.00 78 1020.4
20260503053009 63 45 0.0 0.0 0.00 0.00 0.00 77 1020.0
20260503051547 63 45 0.0 0.0 0.00 0.00 0.00 76 1020.1
20260503050022 64 45 0.0 0.0 0.00 0.00 0.00 75 1020.0
20260503044602 64 45 0.0 0.0 0.00 0.00 0.00 74 1019.8
20260503043034 65 45 0.0 1.0 0.00 0.00 0.00 73 1019.8
20260503041512 65 45 0.0 0.0 0.00 0.00 0.00 72 1020.0
20260503040053 65 45 0.0 0.0 0.00 0.00 0.00 71 1019.8
20260503034523 66 45 0.0 0.0 0.00 0.01 0.00 70 1019.6
20260503033106 66 45 0.0 0.0 0.00 0.01 0.00 69 1019.3
20260503031539 67 45 0.0 0.0 0.00 0.01 0.00 68 1019.2
20260503030006 67 45 0.0 0.0 0.00 0.01 0.00 67 1019.3
20260503024550 68 45 0.0 0.0 0.00 0.04 0.00 66 1019.2
20260503023017 68 45 0.0 0.0 0.00 0.04 0.00 64 1019.1
20260503021559 69 45 0.0 2.0 0.00 0.04 0.00 62 1019.0
20260503020032 70 45 0.0 0.0 0.00 0.04 0.00 60 1019.0
20260503014501 71 45 0.0 0.0 0.00 0.09 0.00 57 1018.6
20260503013051 71 45 0.0 2.0 0.00 0.09 0.00 55 1018.5
20260503011517 72 46 1.0 5.0 0.00 0.09 0.00 53 1018.4
20260503010122 73 344 2.0 6.0 0.00 0.09 0.00 51 1018.2
20260503004531 73 58 3.0 8.0 0.00 0.17 0.00 50 1018.0
20260503003005 74 59 3.0 9.0 0.00 0.17 0.00 49 1017.8
20260503001546 74 37 3.0 12.0 0.00 0.17 0.00 48 1017.7
20260503000020 74 359 5.0 13.0 0.00 0.17 0.00 48 1017.6
20260502234557 75 340 4.0 15.0 0.00 0.26 0.00 47 1017.5
20260502233035 75 321 5.0 12.0 0.00 0.26 0.00 47 1017.5
20260502231512 75 345 6.0 15.0 0.00 0.26 0.00 47 1017.4
20260502230047 75 332 6.0 15.0 0.00 0.26 0.00 47 1017.4
20260502224521 75 48 5.0 15.0 0.00 0.31 0.00 48 1017.2
20260502223101 75 359 5.0 13.0 0.00 0.31 0.00 48 1017.3
20260502221529 75 340 7.0 13.0 0.00 0.31 0.00 47 1017.4